[[{"header":{"parameterUnit":"m.s-1","parameterCategory":1,"la1":30.2991,"la2":30.254,"lo1":-89.0895,"lo2":-89.0444,"dy":0.0017,"dx":0.0017,"nx":28,"ny":28,"refTime":"2026-01-03T03:00:00:Z","depth":0,"parameterNumber":2,"parameterNumberName":"U-component_of_WINDS"},"data":[0,0,0,0,0,0,0,0,0,0,0,0,0,0,0,0,0,0,0,0,0,0,0,0,0,0,0,0,0,0,0,0,0,0,0,0,0,0,0,0,0,0,0,0,0,0,0,0,0,0,0,0,0,0,0,0,0,0,1.5258,1.5258,0,1.5327,1.5328,1.5329,1.5343,1.5343,1.5342,1.5342,1.5419,1.5422,1.5424,0,0,0,0,0,0,0,0,0,0,0,0,0,1.5143,1.5145,1.5258,1.5258,1.5259,1.5327,1.5328,1.5329,1.5343,1.5343,1.5342,1.5341,1.5418,1.5421,1.5424,0,0,0,0,0,0,0,0,0,0,0,0,0,1.5201,1.5146,1.5257,1.5274,1.5277,1.5327,1.5328,1.5329,1.5343,1.5343,1.5342,1.5341,1.5417,1.5421,1.5425,1.5465,0,0,1.5437,1.5438,0,0,0,0,0,0,0,0,1.5198,1.5205,1.5271,1.5273,1.5276,1.5325,1.5316,1.5375,1.5344,1.5318,1.5342,1.5341,1.5389,1.5395,1.541,1.5468,1.5472,1.5437,1.5439,1.5441,1.5442,0,0,0,0,0,0,0,1.5194,1.5202,1.5285,1.5272,1.5275,1.5281,1.5288,1.5327,1.5358,1.532,1.5322,1.5329,1.539,1.5406,1.5412,1.5473,1.5437,1.544,1.5443,1.5444,1.5569,1.557,0,0,0,0,0,0,1.5186,1.5199,1.5283,1.5287,1.5234,1.5283,1.5291,1.5311,1.5357,1.5363,1.533,1.533,1.54,1.5408,1.5415,1.5466,1.5441,1.5445,1.5447,1.5568,1.5569,1.557,0,0,0,0,0,0,1.5183,1.5193,1.528,1.5243,1.5255,1.5286,1.5307,1.5312,1.5328,1.5364,1.537,1.534,1.54,1.5409,1.5452,1.5469,1.5446,1.545,1.5567,1.5568,1.5569,1.5568,0,0,0,0,0,0,1.518,1.5192,1.5206,1.5243,1.5257,1.5315,1.5308,1.5314,1.5334,1.5335,1.5376,1.5382,1.54,1.5446,1.5456,1.5474,1.5453,1.5565,1.5567,1.5569,1.5567,1.5569,1.5572,0,0,0,0,0,1.5176,1.5205,1.5207,1.5217,1.5275,1.5316,1.5323,1.5342,1.5335,1.5351,1.5374,1.5381,1.5465,1.545,1.5462,1.5481,1.5564,1.5567,1.5569,1.5566,1.5569,1.5571,0,0,0,0,0,0,1.5171,1.521,1.5213,1.5254,1.5281,1.5318,1.5338,1.5344,1.5376,1.5375,1.5398,1.5407,1.5449,1.5469,1.5452,1.5523,1.5515,1.5519,1.5509,1.5512,1.5514,1.551,1.5456,0,0,0,0,0,1.5174,1.5202,1.5235,1.5268,1.5281,1.5307,1.5326,1.5337,1.5367,1.5379,1.5405,1.5436,1.5469,1.5491,1.5524,1.5569,1.5579,1.5588,1.559,1.5592,1.5596,1.5623,1.5628,1.5577,1.5577,1.5577,0,0,1.5183,1.5207,1.5224,1.5268,1.529,1.5321,1.5317,1.5349,1.5373,1.5385,1.5427,1.5447,1.5482,1.5526,1.5547,1.5545,1.5612,1.5594,1.5595,1.56,1.5626,1.5631,1.5635,1.5579,1.5579,1.5578,0,0,1.5214,1.5234,1.5264,1.5286,1.5319,1.5335,1.5342,1.5378,1.5391,1.5433,1.5443,1.5471,1.5528,1.5553,1.5574,1.5612,1.5621,1.5622,1.5636,1.5662,1.5666,1.567,1.5686,1.5691,1.5626,1.5626,1.5626,0,1.5221,1.5265,1.528,1.5311,1.5331,1.534,1.5373,1.5394,1.5437,1.5451,1.5446,1.5518,1.5542,1.5593,1.5602,1.5617,1.5629,1.5619,1.5663,1.5667,1.5671,1.5687,1.5693,1.5626,1.5626,1.5626,1.5626,0,1.5273,1.5303,1.5324,1.5363,1.5385,1.5416,1.5438,1.5459,1.5468,1.5485,1.5528,1.5558,1.5597,1.5609,1.5619,1.5662,1.5659,1.5658,1.5652,1.5676,1.5691,1.5697,1.5627,1.5627,1.5626,1.5626,0,0,1.5306,1.535,1.5358,1.5376,1.5412,1.5437,1.5469,1.5505,1.5524,1.5552,1.5582,1.5629,1.5628,1.5651,1.5664,1.5686,1.5717,1.5683,1.5684,1.5691,1.5769,1.5771,1.5778,1.5721,1.5722,1.5723,1.5767,0,1.5343,1.54,1.5413,1.5463,1.5492,1.55,1.5529,1.5555,1.5572,1.5601,1.5621,1.5654,1.5649,1.5664,1.5686,1.5709,1.5734,1.5705,1.5752,1.5754,1.5746,1.5786,1.5789,1.5828,1.5773,1.5773,1.5774,0,1.5395,1.5422,1.5474,1.5506,1.5519,1.5544,1.5579,1.5605,1.5635,1.5646,1.5671,1.5681,1.5717,1.5705,1.5757,1.5737,1.5757,1.5771,1.5773,1.5781,1.5768,1.5798,1.5841,1.5848,1.5783,1.5783,1.5782,0,1.5417,1.5467,1.5505,1.5519,1.5557,1.5575,1.5592,1.5621,1.5642,1.5672,1.5686,1.5721,1.5741,1.5768,1.5788,1.5777,1.5839,1.5828,1.5851,1.5851,1.5867,1.5866,1.5918,1.5874,1.5874,1.5874,1.5874,0,1.546,1.5492,1.5515,1.5539,1.5575,1.559,1.5627,1.5644,1.567,1.5699,1.5707,1.5734,1.5757,1.5788,1.5804,1.5845,1.5854,1.5865,1.587,1.5867,1.5866,1.5883,1.5882,1.5875,1.5875,1.5875,1.5874,0,1.5492,1.5509,1.5551,1.5582,1.559,1.5616,1.5644,1.5668,1.5684,1.572,1.573,1.5756,1.5792,1.5813,1.586,1.5871,1.5918,1.5919,1.5907,1.591,1.5933,1.5932,1.6,1.6011,1.5957,1.5957,1.5957,0,1.552,1.5544,1.5577,1.5596,1.5612,1.5642,1.5663,1.5679,1.57,1.5736,1.5757,1.5793,1.5823,1.5881,1.5906,1.5942,1.5947,1.5968,1.5953,1.5949,1.5951,1.595,1.5954,1.5972,1.5972,1.5973,1.5973,0,1.5568,1.5575,1.5603,1.5634,1.5657,1.5683,1.5709,1.5724,1.5745,1.5769,1.5805,1.5828,1.5874,1.5911,1.5949,1.5969,1.5976,1.5977,1.5985,1.5984,1.5977,1.5984,1.5918,1.5976,1.5976,1.5976,1.5976,1.5975,1.5602,1.5624,1.565,1.5682,1.5702,1.5726,1.575,1.5768,1.5797,1.5835,1.5842,1.5881,1.5911,1.5962,1.5982,1.6014,1.6011,1.6022,1.6025,1.6029,1.6031,1.5968,1.6021,1.6021,1.6021,1.6021,1.6021,0,1.5653,1.5669,1.5698,1.5732,1.5757,1.5757,1.5785,1.5807,1.584,1.5866,1.5895,1.5937,1.5973,1.5999,1.6036,1.6057,1.6061,1.6066,1.6067,1.6072,1.603,1.6021,1.6062,1.6062,1.6062,1.6062,1.6062,1.6062,1.5683,1.5721,1.5731,1.578,1.5797,1.5833,1.585,1.5872,1.5893,1.5939,1.5968,1.5983,1.601,1.6049,1.6082,1.6089,1.6104,1.6109,1.6117,1.6079,1.6075,1.607,1.6062,1.6111,1.6111,1.6157,1.6157,1.6157]},{"header":{"parameterUnit":"m.s-1","parameterCategory":1,"la1":30.2991,"la2":30.254,"lo1":-89.0895,"lo2":-89.0444,"dy":0.0017,"dx":0.0017,"nx":28,"ny":28,"refTime":"2026-01-03T03:00:00:Z","depth":0,"parameterNumber":3,"parameterNumberName":"V-component_of_WINDS"},"data":[0,0,0,0,0,0,0,0,0,0,0,0,0,0,0,0,0,0,0,0,0,0,0,0,0,0,0,0,0,0,0,0,0,0,0,0,0,0,0,0,0,0,0,0,0,0,0,0,0,0,0,0,0,0,0,0,0,0,0.827,0.827,0,0.82,0.8199,0.8198,0.8143,0.8143,0.8142,0.8142,0.8068,0.8066,0.8065,0,0,0,0,0,0,0,0,0,0,0,0,0,0.8356,0.8355,0.827,0.827,0.8269,0.82,0.8199,0.8198,0.8143,0.8143,0.8142,0.8141,0.8068,0.8066,0.8065,0,0,0,0,0,0,0,0,0,0,0,0,0,0.8306,0.8354,0.8271,0.8233,0.8229,0.82,0.8199,0.8198,0.8143,0.8143,0.8142,0.8141,0.8069,0.8067,0.8064,0.8067,0,0,0.8058,0.8057,0,0,0,0,0,0,0,0,0.8309,0.8303,0.8239,0.8236,0.8231,0.818,0.8202,0.8154,0.8144,0.8176,0.8142,0.8141,0.8105,0.81,0.8089,0.8063,0.806,0.8057,0.8056,0.8055,0.8055,0,0,0,0,0,0,0,0.8312,0.8305,0.8242,0.8239,0.8233,0.8219,0.8211,0.8193,0.8146,0.8173,0.8169,0.8161,0.8103,0.8091,0.8087,0.8059,0.8058,0.8056,0.8054,0.8053,0.8032,0.8033,0,0,0,0,0,0,0.8322,0.8309,0.8245,0.824,0.8269,0.8219,0.8209,0.8197,0.8146,0.8138,0.8162,0.8159,0.8095,0.8089,0.8084,0.8083,0.8055,0.8053,0.8052,0.8032,0.8033,0.8033,0,0,0,0,0,0,0.8324,0.8317,0.8248,0.8273,0.8263,0.8218,0.8204,0.8196,0.8184,0.8138,0.8129,0.8159,0.8094,0.8087,0.8072,0.808,0.8052,0.805,0.8031,0.8032,0.8033,0.8083,0,0,0,0,0,0,0.8326,0.8318,0.8318,0.8274,0.8262,0.8237,0.8205,0.8195,0.818,0.8176,0.8132,0.8124,0.8093,0.8075,0.8069,0.8077,0.8048,0.803,0.8031,0.8033,0.808,0.8086,0.809,0,0,0,0,0,0.833,0.8334,0.8319,0.8311,0.8262,0.8238,0.8231,0.8196,0.8181,0.8181,0.8152,0.8125,0.808,0.8074,0.8067,0.8074,0.8029,0.8031,0.8033,0.8078,0.8085,0.809,0,0,0,0,0,0,0.838,0.8328,0.831,0.83,0.8274,0.8229,0.8228,0.8204,0.8181,0.8177,0.8134,0.8124,0.8114,0.8092,0.8086,0.8074,0.8051,0.8052,0.8088,0.8094,0.8099,0.8104,0.8047,0,0,0,0,0,0.839,0.8375,0.833,0.8326,0.8314,0.8274,0.8261,0.8237,0.8207,0.8196,0.8165,0.8137,0.8117,0.8104,0.8083,0.8077,0.8067,0.8078,0.8083,0.8087,0.8088,0.8084,0.8089,0.8039,0.8039,0.8039,0,0,0.8411,0.8381,0.8374,0.8336,0.8313,0.8298,0.8264,0.825,0.8238,0.8193,0.8177,0.8154,0.812,0.811,0.8104,0.8092,0.81,0.809,0.8093,0.8092,0.8086,0.8091,0.8095,0.804,0.804,0.804,0,0,0.8441,0.8417,0.8411,0.8389,0.8354,0.8327,0.8326,0.8284,0.8267,0.8251,0.8217,0.8203,0.8168,0.8145,0.813,0.8152,0.8127,0.8147,0.8172,0.8169,0.8173,0.8176,0.8185,0.8188,0.8148,0.8148,0.8148,0,0.8471,0.8448,0.8411,0.8399,0.8383,0.8343,0.8337,0.8317,0.8277,0.8267,0.8254,0.821,0.8185,0.8169,0.8175,0.8163,0.816,0.8151,0.8175,0.8178,0.8181,0.8189,0.8192,0.815,0.815,0.815,0.8149,0,0.8486,0.8471,0.847,0.8434,0.8418,0.841,0.8371,0.836,0.8337,0.8311,0.8295,0.8263,0.8235,0.8229,0.8206,0.821,0.8204,0.8184,0.816,0.8189,0.8195,0.8198,0.8154,0.8153,0.8152,0.8152,0,0,0.8545,0.849,0.849,0.8474,0.8433,0.842,0.841,0.8383,0.8374,0.8348,0.8338,0.8311,0.8292,0.8274,0.8248,0.8245,0.8266,0.8225,0.8224,0.8234,0.8269,0.8285,0.8289,0.8249,0.8249,0.825,0.8272,0,0.8569,0.8549,0.8516,0.8506,0.8491,0.8453,0.8444,0.8418,0.8394,0.8378,0.8351,0.8332,0.8309,0.8298,0.8293,0.8264,0.8272,0.8262,0.8239,0.8239,0.8249,0.8292,0.8309,0.8332,0.8275,0.8275,0.8275,0,0.8594,0.8572,0.8561,0.8522,0.8515,0.8507,0.8481,0.8466,0.8436,0.8418,0.8399,0.8371,0.8358,0.8337,0.8318,0.8312,0.83,0.8285,0.8285,0.8282,0.8259,0.8291,0.8338,0.8342,0.8279,0.8279,0.8278,0,0.8639,0.8606,0.8595,0.8582,0.8537,0.8533,0.8514,0.8483,0.8469,0.8446,0.8436,0.8411,0.8398,0.8379,0.8345,0.8332,0.833,0.8306,0.8315,0.8316,0.8316,0.8317,0.8363,0.8308,0.8308,0.8308,0.8308,0,0.8669,0.8664,0.8615,0.8609,0.8602,0.8564,0.8558,0.8535,0.8509,0.8497,0.8462,0.8452,0.8407,0.8391,0.8365,0.8353,0.8347,0.8333,0.8326,0.8336,0.8338,0.8328,0.8326,0.8309,0.8309,0.8309,0.8309,0,0.8718,0.8685,0.8671,0.863,0.862,0.8617,0.8581,0.8573,0.8548,0.8533,0.8528,0.8487,0.8467,0.8432,0.8401,0.8383,0.8377,0.8365,0.8388,0.8383,0.8395,0.8395,0.8437,0.8441,0.8384,0.8384,0.8385,0,0.874,0.8735,0.8694,0.8685,0.8667,0.8651,0.8638,0.86,0.8587,0.8554,0.855,0.8527,0.8507,0.8477,0.8444,0.8421,0.8408,0.8424,0.8404,0.8415,0.8409,0.841,0.841,0.8429,0.843,0.8431,0.8431,0,0.8782,0.8766,0.8748,0.8725,0.871,0.8689,0.8667,0.8661,0.8618,0.8606,0.8585,0.857,0.8539,0.8517,0.849,0.8469,0.8443,0.8438,0.8439,0.845,0.8464,0.8457,0.8401,0.8437,0.8437,0.8436,0.8436,0.8436,0.8818,0.8813,0.8783,0.8765,0.8744,0.8725,0.8716,0.869,0.8672,0.8645,0.8624,0.8606,0.8576,0.8536,0.8517,0.8502,0.849,0.8491,0.8492,0.8493,0.8497,0.8466,0.8497,0.8497,0.8496,0.8496,0.8496,0,0.8859,0.8838,0.8822,0.8792,0.8778,0.8756,0.873,0.872,0.8704,0.8679,0.8661,0.8638,0.8617,0.8583,0.8559,0.8553,0.8541,0.8548,0.8549,0.8545,0.8509,0.8511,0.8559,0.8559,0.8559,0.8559,0.8559,0.8559,0.8878,0.8868,0.8849,0.8829,0.8808,0.8791,0.8778,0.876,0.874,0.8716,0.8699,0.8678,0.8649,0.8623,0.8603,0.8594,0.8587,0.8598,0.8585,0.8553,0.8547,0.8541,0.8543,0.8597,0.8597,0.8622,0.8622,0.8622]}]]